Location: Bretagne
(43.8474°N, 0.4650°W)
Time: 00:22:29
(UTC+00:00)

Envisat - Pass Details

Date: 16 March 2026
Orbit: 761 x 762 km, 98.4° (Epoch: 13 April)

Event Time Altitude Azimuth Distance (km) Brightness Sun altitude
Rises 03:46:00 0° 3° (N) 3,234 6.6 -26.5°
Reaches altitude 10° 03:48:36 10° 351° (N) 2,304 5.6 -26.1°
Enters shadow 03:50:57 22° 329° (NNW) 1,639 4.6 -25.7°
